RH
10 11 11 13 14 15 16 16 18 20 21 21 23 25 25 24 23 23 23 25 26 28 30 30 31 31 32 32 32 32 32 32 32 33 33 34 33 30 26 20 14 10 8 8 8 8 8 9 10 12 15 18 24 31 39 45 51 55 56 55 52 51 48 47 46 44 43 42 41 40 40 40 40 41 42 42 42 43 42 42 42 42 42 41 38 36 35 34
9 10 11 12 13 14 15 15 17 19 22 24 26 25 24 23 23 24 25 26 28 30 31 31 32 32 33 32 32 32 32 33 33 33 32 29 24 18 13 10 8 7 7 8 8 9 10 13 15 20 25 32 42 48 53 56 56 56 55 51 49 48 46 45 43 42 42 42 42 42 43 43 43 45 46 46 45 45 44 43 43 41 40 40 38 35 33 33
9 10 11 12 13 14 16 18 20 22 25 25 24 22 22 23 24 26 27 29 31 32 33 33 34 33 33 33 33 33 33 33 31 27 22 16 12 9 8 7 7 7 8 9 10 13 16 21 27 35 42 50 57 58 59 57 54 52 51 49 47 46 44 44 44 44 44 45 46 47 48 48 47 47 48 48 48 47 44 43 42 39 38 39 38 35 32 31
10 11 12 13 14 15 17 18 19 20 21 22 22 22 24 26 27 29 31 33 34 34 34 34 34 33 33 33 33 32 30 26 21 15 10 8 7 7 7 7 8 9 10 13 17 22 28 36 45 51 57 61 60 58 56 53 51 49 48 48 46 46 46 47 48 49 49 49 51 52 53 52 50 49 49 49 48 46 43 42 41 38 37 37 37 35 32 31
10 11 11 13 13 15 17 18 19 20 22 24 25 27 28 30 31 33 34 34 34 33 33 32 32 32 32 31 28 24 18 13 9 7 7 7 7 7 8 9 10 14 18 24 31 38 45 51 56 59 60 60 57 54 52 50 50 49 48 49 49 49 51 53 55 56 55 53 53 54 54 53 53 51 48 47 45 43 41 42 40 38 36 35 35 35 33 31
11 13 14 16 17 19 21 22 22 23 25 26 27 28 29 30 32 32 32 31 31 31 31 32 31 29 26 21 16 11 8 7 7 7 7 7 8 9 12 15 19 26 34 41 48 53 57 58 59 58 57 55 53 52 51 50 50 50 51 51 52 54 55 57 58 58 57 56 55 54 53 52 52 51 48 47 45 42 40 40 38 37 35 33 33 33 33 31
14 16 17 19 19 20 21 21 21 22 24 26 27 28 29 30 30 30 30 31 31 31 29 26 22 17 13 9 7 7 6 6 7 7 8 10 13 17 22 27 35 43 50 55 58 59 59 58 56 55 54 53 52 51 50 51 52 53 55 55 55 56 56 56 56 56 56 56 56 56 54 51 50 49 47 46 45 42 40 38 36 36 34 32 30 30 31 31
14 14 15 16 16 17 18 19 21 22 24 26 27 28 29 30 30 30 29 28 25 21 17 13 10 8 7 6 6 6 6 7 9 11 14 19 23 29 36 44 50 55 58 59 59 58 57 56 55 53 52 51 51 51 52 54 55 56 57 56 56 55 55 55 56 57 57 57 59 59 57 53 50 48 44 43 42 40 38 36 35 35 34 32 29 28 27 28
12 13 13 14 15 16 18 19 21 23 24 26 27 27 26 26 24 22 19 15 12 9 8 6 6 6 6 6 6 8 9 11 14 19 25 32 38 45 51 56 59 59 59 59 58 57 56 54 53 52 51 51 52 53 54 54 54 55 55 56 56 57 58 59 60 61 61 60 59 58 55 50 47 45 42 40 39 38 36 35 34 33 32 31 29 27 26 26
11 12 12 13 14 15 15 16 17 18 19 18 17 16 15 13 11 9 8 7 6 6 6 6 6 6 7 8 9 12 15 20 25 33 42 49 53 57 59 60 60 60 59 58 57 55 54 52 51 51 50 50 51 51 52 53 55 56 59 61 62 63 64 63 63 62 60 58 56 55 51 45 42 41 39 38 36 36 35 34 32 31 30 29 28 28 26 26
9 9 9 9 9 9 9 9 9 9 9 8 8 7 6 6 6 6 6 6 6 6 6 6 7 7 10 12 16 22 28 34 42 50 57 60 61 62 61 61 61 60 59 57 56 54 52 51 50 49 50 51 53 56 59 61 63 65 66 67 66 65 63 62 60 58 56 53 52 51 48 42 38 37 36 35 34 34 34 33 31 30 29 28 28 27 27 26
6 6 5 5 5 5 5 5 5 5 5 5 5 5 5 5 5 5 5 5 5 6 7 8 10 13 18 23 30 40 47 53 59 62 63 63 62 62 62 62 61 59 58 57 56 55 54 55 55 57 60 62 65 67 69 69 70 69 68 66 64 61 59 57 55 53 51 49 47 46 44 41 37 35 34 33 33 33 33 32 31 30 30 30 29 28 27 26
4 4 4 4 4 5 5 5 5 5 5 5 5 5 5 5 5 5 5 6 7 8 11 14 19 27 34 42 49 56 60 62 63 63 63 63 63 63 63 62 62 61 61 61 62 63 64 66 69 71 73 73 73 73 71 70 68 66 64 62 60 56 53 51 50 48 46 44 43 41 41 39 36 35 33 32 32 32 32 31 30 30 30 30 29 28 27 26
4 4 4 4 4 4 4 4 4 4 4 4 4 4 4 5 5 6 8 9 12 17 23 30 37 45 51 56 60 61 63 63 63 64 65 65 65 65 66 66 67 69 71 72 75 76 77 78 78 77 76 74 72 70 68 66 64 61 59 57 55 53 50 48 46 45 43 42 40 38 38 38 36 34 33 32 32 32 31 31 30 30 29 29 28 27 26 25
4 4 4 5 5 5 5 4 4 4 4 5 5 5 6 8 9 12 15 20 26 34 42 49 53 56 59 62 62 63 64 65 66 67 68 69 72 75 77 78 81 83 85 85 84 83 80 78 75 73 71 68 66 64 62 60 58 56 54 52 50 49 48 46 44 43 42 40 39 37 38 38 37 35 34 33 33 32 31 31 30 29 29 28 27 26 25 25
4 4 5 5 5 5 5 5 5 6 6 7 8 9 11 14 18 24 31 39 46 53 57 60 61 61 63 65 66 67 69 72 74 76 80 83 86 88 89 89 89 89 87 84 81 77 73 70 68 66 63 61 60 57 56 54 52 51 49 48 47 46 44 43 42 40 40 40 39 38 37 37 37 35 34 33 33 31 30 30 29 28 28 27 26 25 25 24
5 5 6 6 6 7 7 8 8 9 10 12 15 19 23 29 36 44 52 57 60 63 64 64 65 67 70 73 75 78 81 85 88 90 92 94 94 91 88 86 83 81 77 74 71 68 65 63 61 59 57 55 54 52 51 49 48 47 46 45 44 43 42 41 40 39 39 38 38 37 36 36 35 34 33 32 31 30 30 29 28 27 26 26 26 25 24 24
6 6 7 7 8 9 10 11 13 15 18 23 30 37 45 52 57 61 63 64 65 67 70 73 75 78 83 86 88 90 91 92 93 92 91 92 90 84 80 77 74 71 68 65 63 60 59 56 55 53 52 50 48 47 46 45 45 44 44 43 42 41 40 39 39 38 37 37 36 35 34 34 33 32 32 31 30 29 28 27 27 26 25 25 24 24 23 23
8 9 10 11 13 15 18 21 26 31 36 43 51 58 63 66 67 68 68 71 73 76 80 85 86 89 93 93 92 91 91 90 90 88 85 83 81 75 71 69 66 63 60 59 57 55 53 51 50 49 47 46 45 44 44 43 42 42 41 41 40 40 39 38 37 36 36 35 35 34 33 33 32 31 30 29 28 27 26 26 25 24 24 23 22 21 21 20
12 14 16 20 24 29 35 41 46 52 57 62 64 66 69 70 73 75 78 82 83 86 90 91 91 93 93 90 88 87 87 85 82 80 77 75 72 67 65 62 60 58 55 54 52 50 50 49 48 47 46 45 44 43 42 42 41 40 40 39 39 38 38 37 36 35 35 34 33 32 31 30 29 28 27 26 26 25 24 23 23 22 21 21 20 19 18 18
21 25 29 35 40 46 52 57 61 64 66 68 69 72 76 80 84 86 89 91 89 90 92 92 92 91 88 86 85 83 80 77 74 73 70 68 66 62 59 58 56 54 52 51 50 49 48 47 47 45 44 44 43 43 42 41 41 40 39 39 38 37 36 35 34 33 32 31 31 29 29 27 26 25 24 24 23 22 22 21 21 20 20 19 18 18 17 17
31 36 41 47 52 56 60 62 65 67 70 74 77 81 85 88 91 92 92 93 91 89 90 90 88 86 83 82 80 76 73 70 68 66 65 63 60 57 55 54 53 51 50 49 48 47 47 46 46 45 44 43 42 42 41 40 40 39 38 37 36 35 34 33 32 30 29 29 28 27 26 24 23 22 21 21 20 20 19 19 19 18 18 17 17 17 16 17
39 44 48 53 56 59 62 66 70 74 79 83 85 87 89 90 92 91 90 90 88 86 84 83 81 79 77 74 71 69 66 64 62 61 60 58 56 54 53 52 51 50 49 48 47 47 46 46 44 43 43 42 41 40 39 39 37 36 35 34 32 31 30 30 29 28 27 26 26 25 24 22 20 19 18 17 17 17 17 17 17 17 18 17 17 17 17 17
44 49 53 57 62 66 70 75 79 84 88 88 88 90 91 91 91 89 87 85 82 79 78 76 74 71 68 66 66 64 62 60 59 57 57 56 54 53 52 50 50 49 48 48 47 46 45 44 43 42 41 40 39 38 37 35 34 33 32 30 29 29 27 27 26 26 24 23 21 21 21 20 18 15 16 16 16 17 18 18 18 17 17 17 17 17 17 18
50 56 61 67 73 77 80 82 85 89 88 86 87 90 90 89 88 84 81 79 75 73 72 70 68 66 65 64 63 62 60 59 58 56 56 54 53 52 51 50 49 49 48 46 46 45 44 42 41 40 38 37 35 34 33 32 31 30 29 28 27 26 25 24 22 21 20 19 18 18 20 22 21 18 18 18 19 19 18 18 18 18 19 20 21 21 22 22
60 66 72 77 81 83 84 85 86 87 85 84 87 88 86 84 83 80 76 74 71 69 68 67 66 65 64 63 62 61 60 58 57 56 55 53 53 51 49 48 47 46 45 44 43 41 40 38 37 35 34 33 32 31 30 29 29 28 26 25 23 22 20 19 18 18 18 18 19 19 20 21 21 20 20 20 21 23 24 25 27 28 29 29 29 27 26 24
69 75 79 82 84 84 85 86 86 84 81 83 84 83 81 79 78 76 73 71 70 68 67 66 65 64 63 62 61 60 58 57 56 54 53 52 51 49 48 46 45 44 42 40 38 36 35 34 32 31 30 30 29 29 28 26 25 23 21 20 19 19 19 19 19 19 20 19 19 20 20 22 24 26 28 29 30 31 31 32 32 31 29 27 25 23 21 20
76 79 81 83 84 84 85 85 83 80 80 81 81 79 77 76 74 73 71 69 68 67 66 65 64 63 62 60 59 58 56 55 54 52 51 50 49 47 44 43 40 38 36 35 34 33 32 32 31 30 29 28 26 24 22 21 20 19 19 20 20 20 20 20 20 20 22 24 25 28 30 32 34 34 33 32 30 28 25 24 22 20 19 17 15 14 13 12
79 81 82 83 82 82 83 82 79 78 79 80 79 77 75 73 72 71 69 68 66 65 64 63 62 61 60 58 57 56 54 53 51 50 49 46 45 42 40 39 37 35 34 34 33 32 31 29 28 25 23 21 20 19 20 20 21 21 21 21 21 21 22 24 27 31 36 39 39 37 35 33 30 27 24 22 19 17 15 13 13 12 11 10 9 9 8 8
81 82 82 81 80 80 80 79 78 77 77 77 75 74 73 71 70 69 68 67 65 64 63 62 61 59 58 56 55 53 51 49 47 45 43 41 39 38 36 34 32 31 30 28 27 25 23 22 21 20 21 21 21 22 22 22 22 22 24 26 29 32 35 38 40 42 43 42 36 30 26 22 18 15 14 12 11 10 9 9 9 10 9 9 9 8 8 8
82 82 82 80 79 80 79 77 76 75 74 73 72 71 71 69 68 67 67 65 64 63 61 59 58 56 54 52 50 48 45 43 40 38 36 34 33 32 30 29 28 26 24 23 22 22 22 23 24 24 24 24 23 23 24 25 28 32 35 39 41 42 41 40 37 33 31 27 23 18 16 14 12 10 9 8 8 8 8 9 9 10 10 10 10 9 9 9
82 81 80 79 78 78 77 75 74 72 72 71 71 70 69 68 67 65 64 62 61 59 57 55 53 50 48 45 43 41 39 38 36 34 33 32 31 30 29 28 27 26 26 26 25 25 25 24 24 24 25 27 30 34 38 41 42 42 41 37 34 31 27 24 21 18 17 17 17 14 13 13 13 12 10 9 9 8 9 9 9 10 10 10 10 10 9 9
81 80 79 77 76 76 75 73 73 72 71 70 69 68 66 65 63 61 59 57 55 53 50 48 45 43 41 39 38 36 35 34 32 31 30 29 27 25 24 24 23 24 24 24 24 24 25 28 31 35 39 42 44 44 43 40 36 31 27 23 19 16 13 12 11 11 12 14 16 16 14 15 15 13 11 10 10 10 9 9 9 8 9 9 8 9 8 8
79 78 77 76 75 75 73 73 72 70 69 67 65 63 61 59 57 55 53 51 48 46 43 42 40 39 37 35 34 33 31 31 28 27 25 23 23 23 23 23 23 23 24 26 30 33 38 42 45 45 44 41 36 31 27 23 20 17 15 14 12 12 11 11 11 10 11 13 14 15 15 15 17 14 10 10 10 10 9 8 8 8 7 8 8 8 8 7
78 77 76 75 74 73 71 70 68 66 64 61 59 58 55 53 51 49 47 45 43 41 39 38 36 35 34 33 32 30 28 26 24 24 24 25 25 25 25 26 28 32 37 42 46 47 46 42 38 33 28 25 21 19 17 16 16 15 14 14 13 13 12 12 13 12 11 12 12 14 13 18 29 24 11 10 11 10 10 8 7 8 7 8 7 7 7 7
76 75 74 72 70 69 66 64 62 60 58 55 54 52 50 48 46 44 43 41 40 38 36 35 33 31 30 28 26 24 24 24 25 26 25 25 26 28 33 38 44 48 49 48 44 39 34 28 24 21 18 18 17 16 17 17 17 17 15 15 13 13 13 13 14 13 12 12 11 13 13 21 44 39 13 10 15 13 13 12 11 12 11 11 10 8 9 9
72 70 69 67 64 62 60 58 56 55 53 51 50 48 45 44 42 41 40 38 36 35 33 32 29 27 25 24 25 25 25 26 25 27 30 34 40 45 49 50 49 45 39 33 28 24 22 20 19 19 18 19 18 19 19 18 18 17 16 15 14 14 14 13 14 12 12 11 10 14 17 30 55 45 14 10 15 14 16 18 19 20 17 15 13 12 12 12
66 64 62 60 58 57 56 55 53 52 50 48 46 44 42 41 40 38 37 35 33 31 29 27 26 26 27 27 27 26 27 30 34 41 48 52 53 51 47 41 35 29 24 22 20 19 20 21 21 21 21 20 20 20 20 20 20 19 18 17 15 14 14 14 15 13 12 11 10 12 19 40 62 45 16 14 16 12 16 20 21 21 19 19 18 16 16 15
60 58 57 57 56 55 53 52 50 47 45 44 44 43 41 39 37 35 33 30 28 26 26 27 27 28 28 27 29 32 39 47 52 55 54 50 44 38 32 27 23 21 20 21 22 22 22 23 24 24 23 22 21 21 23 25 25 23 22 19 16 16 16 18 19 17 15 14 12 11 17 39 58 42 21 21 20 16 19 20 19 19 20 21 20 19 18 16
58 57 56 55 53 52 49 47 46 45 44 44 42 40 37 35 32 30 28 26 27 28 28 28 27 28 30 35 43 50 54 56 53 48 42 36 30 26 23 22 22 23 24 24 24 23 23 23 24 26 27 25 24 25 27 29 29 28 25 22 20 21 22 23 24 23 22 21 18 14 15 32 46 35 24 26 24 22 22 19 19 19 19 21 20 19 18 16
57 55 53 52 50 49 47 46 45 44 42 40 37 35 32 29 27 26 28 29 29 28 27 29 33 40 48 53 56 56 52 47 41 35 30 26 23 23 24 25 25 25 24 23 22 22 23 24 28 32 34 32 30 31 33 34 35 33 30 28 28 30 29 27 26 25 25 25 23 19 18 27 34 29 24 26 26 24 22 20 21 20 19 20 20 19 17 16
53 52 51 50 48 47 46 45 42 39 38 35 32 30 28 28 29 30 30 28 27 30 36 44 51 56 58 56 52 47 40 34 30 27 25 25 25 26 26 25 24 23 24 24 26 27 29 31 34 37 38 36 35 36 37 39 40 40 37 35 34 34 32 30 27 24 25 25 25 23 21 23 26 23 22 24 25 24 22 22 22 20 19 18 17 17 16 15
51 50 49 48 46 44 42 39 37 35 34 31 30 30 30 31 30 28 29 32 39 48 55 59 59 56 52 46 40 35 30 27 26 26 27 27 26 26 25 25 25 27 29 30 32 33 34 34 34 36 36 36 36 37 39 41 42 40 37 35 34 34 32 30 28 26 25 25 25 24 23 22 21 20 21 24 24 24 23 22 20 18 17 15 15 15 14 13
49 47 46 44 41 39 37 35 34 33 32 32 32 32 30 28 30 35 44 53 59 62 61 57 53 47 40 35 31 29 28 28 28 29 29 28 28 28 28 29 31 32 33 33 33 33 32 31 31 31 30 30 30 31 32 34 34 32 31 31 31 30 29 28 28 26 25 24 24 23 22 21 20 20 21 22 22 22 21 20 19 17 15 14 13 13 12 12
46 44 41 39 36 35 34 33 33 34 34 32 29 28 32 40 49 58 64 66 63 58 53 48 41 35 31 29 29 29 31 31 32 32 32 32 31 31 31 31 31 31 30 30 29 29 29 28 28 27 26 25 24 24 24 24 24 24 25 26 27 26 26 26 25 24 23 21 21 22 21 19 19 19 19 19 18 18 17 16 16 15 14 13 12 11 11 10
41 39 36 34 33 33 34 35 35 33 29 28 33 44 57 67 71 70 65 61 55 48 42 36 31 29 29 30 31 32 34 35 35 34 33 32 31 30 29 28 28 27 27 27 27 27 26 26 25 24 24 23 21 21 21 20 20 20 21 23 24 24 25 25 24 23 22 20 20 22 21 19 18 17 16 15 13 13 13 12 12 12 12 11 10 9 9 8
36 33 32 33 35 37 37 34 29 27 32 45 62 74 78 75 70 63 56 50 43 37 32 30 30 31 32 34 36 37 37 37 34 32 31 29 28 27 27 26 26 26 26 26 26 25 25 24 23 23 24 22 20 20 20 20 20 21 22 23 24 24 24 25 24 23 22 22 21 20 19 17 14 13 12 12 11 10 10 10 10 10 9 9 8 7 6 5
31 32 35 37 37 34 30 28 32 45 63 78 84 80 72 65 58 51 44 38 33 31 30 31 33 35 37 39 40 39 37 34 32 30 29 27 27 27 26 26 26 26 26 26 25 25 25 24 22 22 24 22 19 19 21 21 22 23 26 26 25 25 24 23 23 23 24 24 21 17 15 13 12 11 11 11 10 10 10 9 9 9 8 7 5 5 4 4
36 38 36 32 30 30 36 49 66 81 87 84 75 66 58 52 45 39 35 32 30 31 32 34 37 39 41 41 40 37 34 31 29 28 27 27 26 26 26 25 25 25 26 26 26 26 26 26 23 21 23 23 20 19 22 23 22 23 26 27 26 26 26 25 24 25 25 23 19 16 14 13 12 12 12 11 10 10 9 8 7 7 6 5 4 3 3 3
36 32 29 33 44 58 72 84 89 87 78 67 59 52 46 41 36 33 31 30 31 33 35 38 41 42 42 40 36 33 30 28 26 25 26 26 25 25 25 24 24 25 27 27 28 29 29 28 26 22 22 23 20 19 22 23 22 23 25 26 27 27 26 25 22 20 19 17 14 13 12 12 12 11 10 9 8 7 6 6 6 6 5 4 3 3 3 3
29 35 48 66 81 89 91 88 80 70 61 53 47 41 37 34 31 30 30 31 34 38 40 43 43 42 40 35 32 30 28 27 26 25 26 26 25 24 23 23 24 26 28 30 32 32 31 31 30 26 23 21 19 18 20 22 22 24 24 23 23 22 20 18 16 14 14 12 10 10 10 9 9 7 7 6 5 5 5 5 6 4 3 3 3 3 3 3
54 73 87 94 94 89 81 71 62 54 48 42 39 35 33 30 29 31 34 37 40 42 44 45 43 39 35 32 31 29 28 28 28 27 27 26 24 24 24 25 25 27 31 32 34 35 35 34 34 29 23 20 18 18 19 20 20 21 20 17 16 16 15 15 15 15 15 12 10 9 8 7 7 5 5 5 4 4 4 4 4 3 2 3 2 2 3 2
Wind_Speed
44 45 45 46 46 47 48 48 49 50 51 51 51 52 53 53 53 53 53 53 53 53 53 54 54 55 56 56 57 57 58 58 59 60 60 61 61 61 60 58 55 51 47 43 39 35 31 27 23 19 16 13 11 10 10 10 9 9 9 9 10 10 11 11 12 13 13 14 16 17 18 20 21 23 25 26 27 29 30 30 31 32 33 36 36 35 35 37
44 44 45 46 47 47 48 49 49 50 50 51 51 52 53 53 53 53 53 53 53 53 54 55 56 56 57 57 58 58 59 60 60 60 61 61 60 57 54 50 45 41 37 33 29 25 21 17 14 12 11 10 10 10 10 10 10 10 10 10 10 11 11 12 13 13 15 16 17 19 21 23 24 25 27 28 29 31 32 32 33 34 35 37 39 38 38 38
43 44 45 46 46 47 47 48 48 49 50 51 52 52 52 52 52 52 52 53 53 54 55 56 56 57 57 58 59 59 60 60 60 60 59 56 52 48 44 39 34 30 26 22 18 15 12 10 10 10 11 11 11 11 11 11 10 10 10 10 10 11 11 12 14 15 17 18 20 22 24 26 27 28 29 31 32 34 34 35 36 36 36 38 41 41 41 41
43 43 44 44 45 45 46 47 48 49 50 51 51 51 51 51 51 52 52 53 54 55 56 56 57 58 58 59 60 60 60 59 57 54 50 46 41 37 33 28 24 19 16 13 10 10 10 11 11 12 12 12 12 12 11 11 10 10 10 10 10 11 12 14 16 18 20 21 23 25 27 29 31 31 32 33 35 36 36 37 39 39 38 39 42 44 45 44
41 42 42 43 43 43 44 46 47 48 48 49 49 49 50 50 51 52 53 54 55 56 56 57 58 58 59 59 59 58 56 52 48 43 38 33 29 26 22 18 14 11 9 9 10 11 12 13 13 13 12 12 11 10 10 10 9 9 9 10 11 13 15 17 19 21 23 25 26 28 30 31 33 35 35 36 37 37 37 39 40 41 41 41 42 45 48 48
39 40 40 41 42 42 43 44 45 46 47 48 48 49 50 50 51 53 54 55 55 56 57 58 58 58 58 56 54 50 46 40 35 30 26 22 18 15 12 9 8 9 10 12 13 13 13 13 13 12 11 10 9 9 9 9 9 9 10 12 14 16 18 19 22 24 26 28 30 32 34 34 36 37 38 38 39 39 39 40 41 43 44 44 44 45 48 50
37 38 39 40 41 41 43 44 45 46 47 48 49 50 51 52 53 54 55 55 56 57 57 57 56 54 51 46 42 37 33 28 23 19 15 12 10 9 9 10 11 13 13 14 13 13 13 12 11 10 9 9 8 8 8 9 10 11 13 15 17 19 21 23 25 27 29 31 33 35 37 37 38 40 40 40 42 43 43 43 43 45 48 49 47 47 48 51
37 38 39 40 41 42 43 44 45 47 48 49 50 51 52 53 54 54 55 56 56 55 53 50 46 42 38 33 28 24 20 17 13 11 9 9 10 11 12 13 14 14 14 13 12 11 10 9 9 8 7 7 7 8 9 11 13 14 16 19 20 22 24 26 28 30 32 33 35 38 40 41 41 44 43 42 43 45 45 46 46 48 51 53 52 51 50 52
37 38 39 40 41 42 43 45 46 47 48 49 51 51 52 53 53 53 52 51 48 45 41 37 32 28 24 20 16 13 11 10 9 10 11 12 13 14 14 14 13 13 12 11 9 8 7 7 6 6 6 7 9 10 12 14 16 18 20 22 24 25 27 29 30 32 34 35 38 41 44 44 43 46 46 44 45 46 48 49 50 51 53 55 56 56 56 56
37 38 39 40 41 43 44 45 47 48 48 49 49 49 49 48 46 44 41 38 34 31 27 23 20 17 13 11 10 9 10 11 12 13 14 15 14 14 14 13 12 10 9 8 6 6 5 5 6 7 8 10 11 13 15 17 19 21 23 25 27 28 30 32 33 35 36 37 40 44 49 48 45 47 48 47 47 47 50 52 53 55 56 57 58 59 61 61
36 37 38 39 40 41 42 42 43 43 42 41 41 39 38 36 33 31 28 25 22 19 16 13 11 10 9 10 11 12 13 14 15 16 16 15 14 13 12 11 9 7 6 5 4 4 5 6 8 9 11 13 14 16 18 20 22 24 26 28 30 31 33 34 35 37 39 39 41 44 52 55 51 49 50 50 49 49 51 55 57 58 59 60 61 63 64 65
32 32 33 33 33 33 33 33 33 32 31 30 28 27 25 23 21 19 17 15 12 10 9 9 10 11 12 14 15 16 17 17 17 17 16 15 13 11 10 8 6 4 3 3 4 5 7 8 10 12 14 16 18 19 21 23 25 27 29 30 33 34 35 37 38 40 41 42 43 44 52 60 59 54 53 52 52 52 54 56 59 60 61 64 65 67 69 70
24 24 24 24 24 24 24 23 22 21 20 19 18 16 15 13 12 11 10 9 10 10 12 13 15 16 17 18 19 19 19 18 17 16 14 12 10 8 6 4 2 1 3 4 6 8 10 11 13 15 17 18 20 22 24 26 27 30 31 33 36 38 39 39 41 42 44 45 47 46 50 60 66 62 58 56 55 56 57 59 60 62 64 66 68 71 73 74
15 15 15 14 14 14 13 13 12 12 12 11 10 9 9 9 9 10 11 13 15 16 18 19 20 21 21 20 20 19 18 16 14 13 11 8 6 4 2 0 2 4 5 7 9 11 13 14 16 18 19 21 23 24 26 28 31 33 34 36 37 41 43 43 44 46 47 49 51 51 50 58 66 68 65 62 61 61 62 63 64 66 68 69 71 73 75 77
9 8 8 7 7 7 7 7 7 7 8 8 9 11 12 13 15 17 18 19 21 22 23 23 22 22 21 20 18 17 15 13 11 9 7 5 3 1 2 3 5 7 8 10 12 13 15 17 19 21 22 24 26 28 30 31 33 35 37 39 40 42 45 46 47 48 50 52 55 55 54 58 64 68 69 68 68 68 67 68 68 69 71 73 75 76 77 79
9 10 10 10 10 10 10 11 11 12 13 14 16 17 19 21 22 23 24 25 25 25 25 24 22 21 20 17 16 14 12 10 8 6 4 2 1 3 4 6 7 9 11 13 15 16 18 20 22 24 26 28 29 31 33 34 36 38 40 42 44 45 47 49 50 51 52 55 58 59 59 62 65 67 70 72 72 73 73 73 74 74 76 77 78 79 79 80
13 14 15 15 16 16 18 18 19 20 21 22 24 25 25 26 27 27 27 27 26 25 24 22 20 19 17 14 13 11 9 7 5 3 1 1 3 5 7 9 11 12 14 16 18 20 22 23 25 27 29 30 32 34 36 38 39 41 43 45 47 48 49 51 53 55 56 57 61 62 63 66 67 68 71 73 74 76 77 78 79 79 80 81 82 82 82 82
19 20 21 22 23 24 25 26 27 28 28 29 30 30 30 29 29 28 27 26 25 24 22 20 18 16 14 12 10 8 6 5 3 2 3 5 7 9 11 13 14 16 18 19 21 23 24 26 28 30 32 34 36 37 39 41 42 44 46 48 50 52 54 55 56 58 59 61 64 66 68 70 70 71 73 75 76 77 78 80 81 82 84 85 85 85 85 85
26 27 28 29 30 31 32 32 32 32 33 33 33 33 32 30 29 28 26 24 22 21 19 17 15 13 11 9 7 6 5 4 4 6 7 9 11 12 14 16 17 19 21 23 24 26 27 30 32 34 36 38 40 42 43 45 46 48 50 52 53 55 58 60 61 62 63 65 68 71 73 74 74 75 76 77 79 79 80 81 83 84 85 86 87 88 88 89
32 33 34 35 35 36 36 36 36 35 35 34 33 32 31 29 27 25 23 21 19 18 16 14 12 11 9 7 6 5 5 6 7 9 10 12 14 16 17 19 21 23 25 27 28 30 32 34 36 38 40 42 45 47 48 49 51 52 54 56 58 58 61 64 65 67 67 68 71 74 77 78 78 78 79 80 81 82 82 83 84 85 86 87 88 89 90 91
36 36 37 38 38 38 38 37 37 36 35 34 32 30 29 27 24 22 20 17 15 15 13 11 9 8 7 6 5 6 6 8 10 11 14 15 17 19 21 23 25 27 29 31 33 34 36 38 41 42 44 46 49 51 53 54 55 57 58 60 62 63 64 67 69 71 71 71 74 77 79 80 82 82 81 81 82 83 85 85 86 87 88 89 90 91 92 92
37 37 38 38 38 38 37 37 35 34 33 31 29 28 26 24 22 19 16 14 12 11 10 8 6 5 5 6 7 8 9 11 13 15 17 19 21 23 25 27 29 31 32 34 37 38 40 42 45 47 48 50 53 55 57 59 60 61 63 64 66 67 68 70 73 75 75 75 77 79 81 82 84 84 82 81 83 85 87 87 88 89 90 91 92 93 94 94
37 37 37 37 37 36 35 34 33 31 30 28 26 24 23 21 19 17 14 11 9 8 6 5 4 5 6 8 9 11 13 15 17 19 21 23 25 27 29 31 32 34 36 39 41 43 45 47 49 51 53 55 57 59 61 63 65 66 67 68 70 71 72 72 75 77 79 79 79 80 83 85 86 85 83 83 85 87 88 89 90 91 91 92 93 95 96 96
36 36 36 35 35 34 33 31 30 28 26 24 23 21 19 17 15 13 11 9 7 5 4 4 5 7 9 11 12 15 16 18 20 22 24 27 29 31 33 35 36 38 41 43 45 47 49 51 53 55 57 59 61 63 65 67 69 71 72 73 74 75 76 76 76 78 80 81 80 81 83 87 88 86 85 86 87 89 91 92 92 93 93 94 95 96 97 98
34 34 34 33 32 31 30 28 27 25 23 21 19 17 15 13 11 9 7 5 4 4 5 6 9 11 13 15 16 18 21 22 24 27 29 31 33 36 38 39 41 43 45 47 49 51 54 56 57 59 61 63 64 66 68 70 72 74 76 77 77 78 79 79 79 80 81 82 83 83 83 87 90 89 88 89 91 92 93 94 94 95 96 97 98 99 100 101
33 32 32 31 29 28 26 24 22 21 19 17 16 14 12 9 7 5 4 3 4 6 8 11 13 15 17 19 20 23 25 27 29 31 33 35 38 40 42 44 45 47 49 51 53 55 58 59 61 63 65 66 68 69 71 72 73 75 77 78 79 80 80 81 82 82 83 84 85 86 86 88 90 90 90 91 93 94 95 95 96 97 99 101 102 103 104 104
30 30 29 27 26 24 22 20 19 17 15 13 12 10 8 6 4 3 4 6 8 10 12 15 17 19 21 23 25 27 29 31 34 36 37 39 42 44 46 48 50 51 53 55 57 59 61 63 65 67 68 69 70 72 73 74 75 77 78 79 80 82 83 83 84 85 86 88 88 88 89 90 91 92 92 93 94 95 96 97 98 99 101 103 104 105 106 106
27 26 25 24 22 20 19 17 15 13 12 10 8 6 5 4 4 6 8 10 12 14 16 18 21 23 25 27 29 31 33 35 38 40 42 43 45 47 50 52 54 55 57 59 61 63 65 66 68 69 71 71 72 73 75 76 77 79 80 81 82 84 85 86 86 87 88 90 91 91 93 94 95 95 96 97 97 98 98 98 99 100 101 102 103 103 103 103
24 23 21 20 18 17 15 13 12 10 8 7 5 4 5 6 8 10 12 14 16 18 20 22 24 26 29 31 33 35 37 39 41 44 46 48 49 51 53 56 57 59 61 62 64 65 66 68 69 71 72 74 75 76 77 79 80 81 83 84 85 86 87 87 87 88 89 93 95 95 97 98 99 99 99 99 98 98 97 96 95 96 96 97 97 97 97 97
20 19 18 16 14 13 11 9 8 6 5 4 5 6 8 10 12 14 16 18 20 22 24 26 28 30 32 34 36 39 41 43 45 47 49 51 52 54 56 58 60 61 62 63 64 65 67 69 71 73 75 77 78 80 81 82 82 83 84 85 86 87 88 89 89 90 92 95 98 98 99 100 100 99 98 97 95 93 92 91 90 91 91 92 92 92 92 92
17 15 14 12 10 8 7 5 4 4 5 6 8 10 12 14 16 18 20 22 24 26 28 30 32 34 36 38 40 42 44 46 48 50 52 53 55 56 58 60 62 64 66 67 68 69 71 73 75 76 78 80 82 83 84 84 84 85 86 87 88 89 90 90 91 91 91 93 95 95 94 96 97 97 96 94 92 90 89 88 87 88 89 90 90 90 89 89
12 11 9 7 6 5 4 4 5 7 8 10 12 14 16 18 20 22 24 26 28 30 32 34 36 37 39 41 43 45 47 49 51 53 54 56 57 59 60 62 64 66 68 71 72 74 74 76 77 79 80 81 82 84 85 87 88 89 90 91 91 90 89 88 87 85 84 85 88 89 88 90 93 95 94 92 90 89 88 86 85 86 87 87 87 87 87 87
8 7 5 4 4 5 6 7 9 11 13 14 16 18 20 22 24 26 27 30 32 34 36 37 39 41 42 44 46 47 49 51 53 54 56 58 59 60 61 62 64 65 67 70 72 74 75 76 77 79 81 82 84 85 86 88 89 90 90 90 90 87 85 83 81 80 77 78 82 85 84 86 89 92 92 90 88 88 88 87 85 85 86 85 85 85 84 84
5 4 5 5 6 8 9 11 13 15 16 18 20 22 24 26 27 29 31 33 35 37 39 40 42 44 45 47 48 50 51 53 54 56 58 59 61 62 64 65 66 67 69 70 72 75 75 76 78 80 83 85 86 86 86 86 86 87 87 86 86 85 83 81 81 80 77 75 78 80 81 83 86 89 88 86 86 86 86 86 84 83 83 83 83 82 82 82
5 6 7 8 10 11 13 15 16 18 20 22 24 25 27 29 31 33 34 36 38 40 41 43 45 46 48 49 50 52 53 55 56 58 60 61 63 64 65 67 68 68 70 71 74 77 80 80 80 81 82 83 83 83 82 83 83 84 85 84 84 83 82 81 81 82 80 77 76 76 76 79 84 87 85 82 82 84 84 83 82 82 82 82 82 81 81 81
7 9 10 12 13 15 17 18 20 22 23 25 27 29 30 32 34 36 37 39 40 42 44 45 47 48 49 51 52 53 55 56 58 60 61 62 63 64 65 66 68 70 72 73 75 77 79 80 80 79 79 79 79 79 80 81 82 83 84 84 83 81 81 80 80 81 80 77 74 72 73 75 81 87 84 81 82 84 85 86 84 84 85 85 85 85 84 84
11 12 13 15 16 18 20 22 23 25 27 28 30 32 34 35 37 38 40 42 43 45 46 48 49 51 52 53 55 56 57 58 59 60 62 63 64 65 67 69 71 72 73 73 73 72 73 75 77 77 77 77 77 77 79 81 82 83 83 83 82 81 80 80 80 79 78 76 72 70 72 74 79 86 85 83 84 84 85 87 87 87 88 89 90 90 89 89
14 15 16 18 20 21 23 25 26 28 30 31 33 35 36 38 40 41 43 44 45 47 48 50 51 52 54 55 57 58 59 59 60 61 63 65 67 68 70 70 71 71 70 69 69 69 69 71 74 76 77 76 75 75 77 80 82 83 84 84 83 81 80 80 82 83 80 79 74 71 72 72 77 87 89 88 89 87 86 88 88 89 90 90 92 93 93 92
17 18 19 21 23 24 26 28 29 31 32 34 36 37 39 41 42 43 45 46 47 49 50 51 53 54 55 56 57 58 59 60 62 63 65 67 68 69 69 68 67 67 67 67 67 68 67 68 70 74 77 76 75 74 76 79 81 83 84 85 84 84 84 83 86 88 87 87 84 78 74 70 76 88 92 91 93 92 90 91 92 92 92 93 94 95 96 95
19 21 22 24 25 27 28 30 32 33 35 37 38 40 41 42 44 45 46 48 49 50 52 53 54 54 55 56 57 58 60 62 64 66 66 67 66 66 65 65 65 65 66 66 66 66 66 66 68 72 75 77 77 76 77 79 81 83 85 87 87 87 88 87 87 89 90 91 92 89 82 73 77 88 92 92 94 94 94 95 95 95 95 95 97 97 98 99
22 23 24 26 27 29 31 32 34 36 37 39 40 41 43 44 45 47 48 49 50 52 53 53 53 54 56 57 59 61 63 65 65 64 63 63 62 62 62 62 63 64 64 65 66 67 67 67 68 69 72 75 76 75 76 78 80 83 85 87 87 87 89 89 88 88 89 90 93 95 90 80 81 89 91 91 93 94 96 96 96 97 97 98 99 100 101 102
24 25 26 28 29 31 33 35 36 38 39 40 42 43 44 46 47 48 50 51 51 52 52 53 54 56 58 60 62 63 63 62 62 61 60 60 60 60 60 61 63 64 65 66 67 67 66 65 64 64 66 69 71 71 72 72 74 78 82 84 85 85 87 89 90 89 88 88 91 94 92 86 86 91 91 90 92 94 96 96 97 98 99 100 101 103 104 105
26 27 29 30 32 33 35 36 38 39 40 42 43 44 46 47 48 49 50 50 51 51 53 55 57 59 61 62 62 61 59 58 58 58 58 58 59 60 61 62 64 64 64 63 63 62 62 60 59 58 58 59 61 63 65 66 69 73 77 80 81 83 85 86 88 89 88 87 89 92 93 90 90 93 92 91 93 95 96 98 99 101 102 103 104 104 105 106
28 29 31 32 34 35 36 37 39 40 41 43 44 46 47 48 48 49 49 50 52 54 56 58 59 60 60 59 57 56 55 56 56 57 58 59 60 60 61 60 59 58 57 57 57 58 59 59 59 60 60 57 54 53 55 57 62 67 70 73 76 79 81 82 84 86 87 86 87 90 94 93 92 93 93 93 94 96 97 99 101 103 104 104 104 104 105 105
30 31 33 34 35 36 37 38 40 41 43 44 46 47 47 48 48 49 51 53 55 57 58 59 59 57 56 54 53 53 53 55 56 56 57 57 57 56 55 54 52 52 52 53 53 55 56 58 60 63 67 67 63 61 61 60 61 64 65 68 73 77 79 80 81 84 87 87 85 87 92 94 93 93 94 95 96 97 99 100 100 102 103 104 104 104 103 103
31 32 33 34 36 37 38 40 42 43 44 45 46 46 46 48 50 52 53 55 57 58 58 56 55 53 52 51 51 52 52 53 54 54 54 53 53 52 52 52 51 51 52 53 54 55 56 58 59 63 69 71 69 69 71 70 70 70 68 68 72 75 77 79 81 83 87 89 86 85 90 95 95 96 97 99 100 100 100 101 100 101 102 103 103 102 101 99
31 33 34 35 37 39 40 42 43 44 44 44 45 46 48 50 52 54 56 56 57 56 54 52 51 50 50 50 51 51 52 52 52 52 52 53 53 53 53 53 53 54 55 56 56 57 58 58 58 61 68 70 69 69 71 73 73 74 73 72 73 75 77 78 80 83 86 90 89 88 91 95 98 100 101 102 103 102 101 101 101 102 102 102 100 98 95 92
32 33 35 37 39 40 41 42 42 42 43 44 46 48 50 52 54 55 55 55 53 51 49 48 48 48 48 49 49 49 50 51 52 53 54 54 55 55 56 56 57 58 60 60 59 60 61 62 59 60 66 70 69 69 72 73 73 74 75 76 76 77 78 79 80 82 85 89 92 93 95 98 100 102 102 103 105 105 103 102 101 102 101 99 95 90 86 83
33 35 37 39 40 40 40 40 41 42 44 46 48 50 52 53 54 54 52 50 48 47 46 46 46 46 47 47 48 48 49 50 51 52 54 55 55 56 57 58 59 62 63 63 64 64 65 66 64 61 64 69 69 69 71 73 73 73 74 77 78 79 80 81 82 83 86 89 93 96 97 98 100 102 103 104 105 104 102 99 97 97 97 94 89 85 83 81
35 37 37 37 37 38 39 40 42 44 46 48 50 52 53 52 51 50 48 46 45 45 45 45 45 46 46 47 48 49 50 50 51 52 54 56 56 57 59 60 62 65 67 68 70 70 70 71 70 66 65 69 69 68 71 73 73 74 75 76 78 79 80 82 83 84 86 89 92 94 96 97 98 99 100 100 99 98 96 93 93 93 92 89 86 84 83 82
35 34 34 35 36 38 40 42 44 46 48 50 51 51 50 49 47 45 44 44 43 44 44 44 45 46 47 48 49 51 52 53 54 55 57 59 61 61 62 64 65 69 72 74 76 78 78 78 78 74 69 69 69 67 69 72 73 74 75 75 76 79 81 83 86 87 89 92 94 95 96 97 96 96 95 93 93 93 91 89 89 88 85 83 81 80 79 77
31 32 34 36 38 40 42 44 46 48 49 50 49 48 46 45 43 42 42 42 43 43 43 44 45 47 48 49 51 53 55 57 59 60 62 65 67 68 70 72 72 74 77 79 80 83 84 84 85 82 75 71 70 69 69 71 72 73 75 76 78 81 83 85 88 90 92 95 97 98 97 98 98 97 96 93 91 89 88 87 86 82 78 75 75 75 74 72
Wind_Direction
245 246 248 249 250 251 253 254 255 256 257 258 260 261 262 263 264 266 267 269 271 272 274 275 276 277 278 279 281 281 282 283 284 285 286 286 286 286 286 286 285 285 283 281 280 278 276 274 270 264 256 246 233 221 210 203 199 197 201 206 213 222 229 236 242 249 256 261 265 268 270 272 273 275 276 277 278 278 278 279 280 281 282 284 283 283 283 284
246 247 248 250 251 252 254 255 257 258 259 260 261 262 263 264 266 267 269 271 272 273 274 276 277 278 279 280 281 282 283 284 285 285 286 286 286 286 285 284 282 281 279 277 275 272 268 261 251 239 224 210 199 194 192 190 193 198 205 212 221 230 239 247 255 261 266 270 273 274 275 275 275 276 278 279 280 281 280 281 282 282 283 284 285 284 284 284
248 249 250 252 253 255 256 258 260 261 262 263 263 264 265 266 268 269 271 272 274 275 276 277 278 279 280 281 282 283 284 284 285 286 286 286 285 284 282 280 277 275 273 269 264 256 244 228 212 201 192 184 182 185 188 191 198 206 215 223 232 242 253 262 268 271 272 273 275 277 278 279 278 277 278 279 280 281 281 283 282 282 283 285 286 286 285 285
251 252 254 255 257 259 260 262 263 264 264 265 265 266 268 269 270 271 273 274 275 275 276 277 279 280 280 281 282 283 284 285 285 285 284 283 282 280 277 274 270 265 259 250 237 219 202 190 182 179 178 179 183 188 195 201 209 217 229 240 250 259 266 272 275 277 277 277 277 278 278 279 280 279 279 279 279 280 281 283 283 283 284 285 286 288 287 286
254 256 258 260 262 263 264 264 264 265 265 266 267 268 269 270 272 273 273 274 275 276 277 278 279 280 280 281 282 283 284 283 282 281 280 279 277 274 269 263 254 240 221 203 190 182 177 174 172 175 179 183 189 197 206 216 226 236 247 258 266 270 273 276 278 279 280 280 279 279 278 278 280 280 280 280 279 280 281 282 283 284 284 285 286 288 289 289
258 260 261 262 263 263 263 263 264 265 266 267 269 270 271 272 272 273 273 274 275 276 277 278 279 280 281 282 282 282 281 279 278 276 275 272 267 259 247 230 208 186 175 171 170 169 170 173 174 178 185 191 200 211 223 236 245 256 264 269 273 274 276 276 278 279 279 281 281 281 280 279 279 280 280 281 282 282 283 283 285 286 286 286 286 287 290 291
260 261 261 262 262 263 264 265 266 267 268 269 270 270 271 271 272 273 274 274 275 276 277 278 279 280 280 279 279 277 275 273 271 267 261 251 236 214 192 177 167 162 163 164 165 168 171 175 180 187 194 204 217 230 244 256 265 271 274 276 277 277 278 278 279 280 280 282 283 283 283 282 282 281 281 283 285 286 286 287 288 289 289 288 287 287 288 290
261 261 262 263 264 264 265 266 266 267 268 268 269 270 270 271 272 273 273 274 275 276 277 277 277 276 275 273 271 270 267 261 252 238 217 196 181 169 162 159 158 158 160 162 166 171 176 183 191 202 212 226 241 255 264 270 274 276 278 278 279 280 280 281 282 283 284 285 286 286 285 284 284 284 284 285 287 288 289 290 291 291 291 291 290 290 290 290
262 262 263 264 265 265 265 265 266 266 267 267 268 269 270 270 271 272 272 273 274 274 273 272 271 269 267 264 258 251 240 224 204 184 168 161 158 155 153 153 154 156 159 163 170 177 186 198 213 228 243 256 265 271 275 277 278 279 280 281 281 282 284 285 286 286 287 287 288 287 286 284 285 285 286 287 288 289 291 292 292 292 291 292 293 294 293 293
265 265 266 266 266 265 265 265 265 266 266 267 267 268 268 268 269 269 269 269 268 267 265 263 260 256 248 236 219 200 187 175 163 155 150 149 149 148 147 148 152 155 161 168 179 192 209 229 245 258 265 271 275 278 280 282 283 284 285 286 286 286 287 287 287 287 287 287 288 288 287 285 284 285 286 287 288 291 293 293 293 292 293 293 294 295 294 294
267 266 266 265 265 264 264 264 264 264 264 264 264 264 264 264 264 263 262 259 257 254 250 244 234 219 199 183 171 161 156 151 146 144 143 144 144 145 146 148 153 159 169 182 204 226 249 262 268 274 278 280 283 286 287 288 289 289 289 289 288 287 286 286 286 286 286 287 288 290 290 289 286 285 286 288 290 292 293 293 293 294 295 295 295 294 293 293
265 264 263 262 261 261 260 260 260 260 259 259 258 257 257 255 254 251 247 242 234 223 207 191 178 168 159 152 147 144 142 141 141 140 141 143 144 146 147 149 155 167 190 226 255 267 274 280 283 286 288 290 292 293 292 291 290 289 287 287 286 284 284 284 285 286 287 288 288 290 291 291 290 289 288 289 291 293 292 292 293 294 295 295 295 295 294 293
261 260 259 258 257 256 255 255 254 253 251 249 247 244 241 236 230 221 210 196 180 167 158 152 146 142 140 138 138 138 139 140 140 140 141 141 142 143 144 148 160 217 266 281 288 290 292 293 294 294 293 293 292 290 288 286 285 284 284 284 285 285 285 286 287 288 289 290 290 290 290 292 292 292 291 291 292 292 293 292 293 294 295 295 294 294 294 294
250 250 249 248 247 247 246 243 241 237 233 228 218 208 199 187 175 164 156 150 144 139 137 135 134 133 134 135 136 138 138 138 137 135 134 133 132 134 129 156 300 301 301 300 298 296 295 293 291 289 286 284 283 282 281 281 281 282 283 284 285 287 288 289 290 291 291 291 291 291 290 291 292 293 294 295 294 294 294 294 295 295 294 294 293 293 293 294
214 210 207 204 201 196 194 191 187 182 176 170 160 151 146 142 138 136 134 132 130 130 130 129 131 132 133 134 134 134 132 129 125 122 118 112 101 60 342 315 307 303 298 293 290 287 285 283 281 280 279 279 279 279 280 281 282 284 285 286 287 287 289 290 290 291 291 291 291 291 292 291 291 293 295 297 297 296 296 296 295 295 294 293 293 293 293 294
160 156 151 146 142 139 138 136 134 132 131 130 129 128 128 128 127 127 126 126 127 128 128 128 130 130 129 129 127 124 121 115 109 103 92 65 10 320 303 291 284 282 280 277 276 276 276 276 277 278 279 281 282 283 284 284 285 285 286 287 288 288 289 290 290 290 291 291 291 292 292 291 291 293 295 296 297 297 297 297 296 295 294 293 293 293 293 294
133 130 127 124 123 122 121 119 119 119 120 120 120 121 121 122 122 123 124 125 126 127 126 125 126 124 120 119 116 112 109 104 96 93 86 288 272 271 269 267 268 269 270 272 274 276 278 279 281 282 283 283 284 285 285 286 286 287 287 287 288 288 288 288 290 290 291 291 291 291 291 290 291 292 293 294 295 296 296 296 296 295 295 294 294 293 293 293
117 116 116 116 115 115 115 115 116 117 117 117 117 118 118 119 120 121 123 124 125 125 123 121 120 116 112 112 112 111 115 119 136 197 231 246 252 258 261 264 268 271 273 276 279 280 282 283 284 284 284 284 284 284 285 285 286 287 288 288 289 290 290 289 290 290 291 291 291 291 291 290 291 292 292 292 293 293 294 294 294 294 294 293 293 293 293 292
109 110 111 112 113 113 113 114 114 115 116 116 116 117 118 119 120 121 122 122 122 122 120 118 116 114 115 122 129 136 151 175 207 230 242 251 258 263 268 272 275 278 279 280 281 282 283 284 284 284 285 285 286 286 286 286 286 287 287 288 289 290 291 291 291 290 291 292 292 291 291 291 291 291 291 292 292 293 293 293 293 292 292 292 292 292 292 292
109 110 111 112 112 113 113 113 114 115 116 116 118 119 120 120 121 121 121 121 121 121 119 119 122 126 135 147 161 177 199 222 237 249 258 264 269 273 276 279 280 282 283 284 284 284 285 285 285 286 286 287 287 288 288 288 288 288 289 289 289 289 290 290 290 290 291 291 291 291 291 291 291 291 291 292 293 293 293 292 291 291 291 291 291 291 291 291
110 111 112 112 113 114 114 116 117 118 119 120 121 120 119 119 119 119 118 119 123 124 124 128 136 149 162 179 203 221 237 251 261 268 273 276 279 280 281 282 283 283 284 285 286 286 287 287 287 288 288 289 289 289 289 289 289 289 289 289 290 290 290 290 290 290 290 291 291 291 291 291 291 291 292 292 293 293 292 292 292 292 292 291 291 291 291 290
111 112 113 114 115 116 118 119 120 121 121 122 122 121 120 120 120 121 122 125 130 133 138 145 159 182 203 225 244 256 264 270 275 277 280 282 282 282 283 284 285 285 286 287 287 288 288 289 289 289 289 290 290 290 290 290 290 290 290 290 290 290 290 291 292 292 292 292 292 292 292 292 291 291 292 293 293 292 292 292 291 291 291 291 290 290 290 290
113 114 116 117 118 119 120 121 121 121 121 121 122 121 122 123 123 125 130 136 141 148 158 173 200 228 245 259 267 272 274 277 280 282 283 285 285 285 286 287 288 289 289 289 289 290 290 290 290 290 290 290 290 291 291 291 291 291 291 291 291 291 292 292 293 293 293 292 292 292 293 292 291 291 292 293 292 291 291 291 291 291 291 291 291 290 290 290
115 116 118 119 120 120 121 121 121 121 122 124 124 124 126 127 127 131 138 146 155 173 195 227 250 261 266 272 276 279 280 281 284 285 286 286 287 287 287 287 288 289 290 290 291 291 291 291 291 291 291 291 291 292 292 293 293 293 293 293 293 293 293 292 292 292 292 292 292 293 294 294 293 292 294 293 292 292 292 291 291 291 291 290 290 289 289 289
117 118 119 120 120 121 122 122 123 124 127 128 127 128 131 132 134 138 147 161 186 225 247 262 268 272 275 277 280 282 283 284 285 286 287 288 288 289 289 289 289 290 290 291 291 292 292 292 291 292 292 292 292 293 294 294 295 295 295 295 294 294 293 293 293 293 293 293 294 294 294 295 294 295 295 294 293 293 292 292 292 292 291 291 290 290 289 289
119 120 121 121 122 124 124 125 126 129 131 131 131 134 137 139 145 154 174 208 248 265 271 274 276 278 280 282 283 285 286 287 287 288 288 289 290 290 291 291 291 292 292 292 292 292 292 292 293 293 293 294 295 295 295 294 294 294 294 294 294 294 294 295 295 295 295 295 295 295 295 294 294 294 294 293 292 292 292 292 292 292 292 292 292 291 291 291
122 123 123 124 126 127 127 128 132 135 135 135 138 143 149 158 178 213 241 259 271 277 279 282 284 284 285 286 287 288 289 290 290 290 290 291 292 292 293 293 294 294 294 294 294 294 294 295 295 295 295 295 295 295 295 294 294 294 294 295 295 296 296 297 297 297 297 297 296 296 295 295 294 294 293 292 292 292 292 292 292 292 292 292 292 292 292 292
125 126 127 128 131 132 132 136 140 142 141 144 150 161 180 209 242 259 266 274 280 283 285 286 287 288 289 290 290 290 291 292 292 293 292 293 293 294 294 294 294 295 296 296 297 297 297 297 297 296 296 296 295 295 295 296 296 297 297 297 297 297 297 298 298 298 299 298 298 297 296 295 295 294 294 293 293 293 292 293 293 293 292 292 291 291 291 291
128 130 131 134 137 138 140 145 150 153 156 164 181 208 235 254 270 276 279 283 285 286 288 289 290 291 292 293 293 294 294 294 295 295 295 296 296 296 297 297 298 298 298 298 298 297 297 297 297 297 297 298 298 298 298 299 299 298 299 299 298 298 298 298 299 299 300 299 298 298 297 296 296 295 294 294 294 294 293 293 293 292 291 291 290 290 290 290
133 135 138 142 144 146 151 157 165 174 187 212 240 260 272 277 282 285 287 289 289 289 290 291 292 293 294 294 295 296 296 296 296 296 297 297 298 298 298 298 298 297 297 296 297 298 298 299 300 301 301 301 301 300 300 299 299 299 299 299 299 299 299 299 300 300 300 299 299 298 298 297 297 296 295 294 294 294 294 294 293 292 291 291 291 290 291 291
139 141 145 149 152 158 167 180 200 227 251 268 278 283 285 287 289 290 291 292 292 292 293 294 294 294 295 296 296 296 297 297 297 298 298 299 299 299 300 301 301 302 302 302 303 303 303 303 303 303 302 302 301 301 301 300 300 300 299 299 299 299 299 299 300 300 300 299 298 298 298 298 297 297 296 295 295 295 295 294 294 293 292 292 292 292 292 291
146 149 154 161 172 188 212 236 256 271 279 285 288 289 290 290 291 292 293 294 295 295 296 296 296 296 297 297 298 299 300 300 301 301 302 302 303 304 304 305 305 305 305 305 305 305 304 304 303 303 302 302 302 302 302 302 302 301 300 299 299 298 298 298 298 298 298 298 297 297 298 298 298 297 296 296 297 297 296 295 294 293 293 293 293 293 292 292
156 165 179 197 224 246 263 275 281 286 288 290 291 291 292 293 294 295 296 297 297 297 298 298 298 299 299 300 301 301 302 302 303 304 304 304 304 304 304 304 304 304 303 303 303 303 303 303 303 303 303 302 302 302 302 301 301 300 299 299 298 298 299 298 298 297 297 297 298 299 300 299 298 296 296 297 298 298 297 296 296 295 295 295 295 294 294 293
183 205 228 248 265 275 282 286 289 290 291 292 293 295 296 297 298 299 299 299 299 299 300 301 302 302 303 303 304 304 304 305 305 305 306 306 306 306 306 306 305 305 305 305 304 304 304 304 304 303 303 303 302 302 302 301 301 300 300 300 300 301 301 301 301 300 299 299 300 301 302 301 299 296 296 298 299 298 297 297 297 297 297 296 295 295 294 293
232 253 265 274 281 285 288 290 291 293 296 297 298 299 300 300 301 301 301 302 302 303 303 304 304 305 305 306 306 306 307 307 307 307 307 307 307 307 307 307 306 307 307 307 307 306 306 305 305 304 304 303 303 304 304 303 303 302 302 302 302 303 304 305 304 304 303 303 304 304 305 305 303 300 299 300 301 300 300 299 300 300 299 299 298 297 296 295
265 273 279 284 287 290 292 295 297 299 301 302 302 303 303 303 304 304 304 305 305 306 306 306 306 306 307 307 307 308 308 308 308 308 308 307 307 307 307 307 308 308 308 308 307 307 307 307 306 306 305 305 305 306 306 305 304 304 303 304 305 306 307 307 306 305 305 306 307 307 307 308 304 301 303 305 304 305 305 305 306 306 305 304 302 301 301 300
277 282 287 291 294 296 299 301 303 304 304 305 305 305 305 305 306 306 307 307 307 308 308 308 308 309 309 309 310 310 310 309 309 309 309 309 309 309 309 309 309 309 309 308 308 308 308 309 308 308 308 307 308 308 307 307 306 306 306 307 308 309 309 309 308 307 306 307 308 310 311 310 302 301 306 307 306 307 308 308 308 306 305 305 304 304 303 303
286 290 295 299 301 303 304 305 306 306 306 306 307 307 307 308 308 308 308 308 309 309 309 310 310 310 311 311 311 311 311 310 311 311 311 311 310 310 310 310 310 310 311 311 311 311 311 311 310 310 309 309 310 311 311 311 311 311 311 311 311 312 312 312 311 310 310 311 311 312 314 309 300 302 309 309 308 309 309 307 305 304 304 304 303 302 302 302
295 299 302 304 305 306 307 307 307 307 308 308 309 309 309 309 309 309 309 310 310 310 311 311 311 311 311 311 311 312 312 312 312 312 312 311 311 311 312 313 313 313 314 314 314 313 313 313 312 312 312 312 314 315 316 315 314 314 313 313 314 315 315 315 314 314 314 314 314 314 315 308 299 302 308 308 308 309 308 306 305 304 303 302 301 301 301 301
302 305 306 307 307 308 308 308 309 310 310 310 310 310 309 309 309 310 310 311 311 311 311 312 312 312 312 312 313 313 313 313 312 312 312 313 313 314 315 316 317 317 316 315 315 316 316 317 318 317 317 317 319 319 318 317 315 314 314 315 316 316 315 315 314 313 314 314 313 314 314 309 301 303 307 307 307 306 305 305 304 304 303 301 301 300 300 300
306 306 307 308 308 309 310 310 311 311 310 310 309 309 310 310 310 311 311 312 312 312 312 313 314 314 314 314 314 314 314 313 313 314 315 316 317 318 319 319 319 319 319 319 320 321 322 323 323 321 319 319 320 320 318 316 315 314 315 315 315 314 313 312 312 311 311 311 310 311 312 309 303 303 305 305 304 303 303 303 302 302 301 301 300 300 300 300
307 308 308 309 310 310 311 311 311 310 310 309 309 310 310 311 312 312 312 313 314 314 315 315 315 315 315 315 315 315 315 315 316 317 318 319 320 321 321 322 323 324 325 325 326 326 325 325 323 319 317 317 319 318 316 315 313 313 313 312 312 310 309 309 309 310 310 309 308 308 309 308 305 304 305 303 302 302 302 301 301 301 301 301 301 300 300 300
308 309 310 311 311 311 311 310 310 310 309 309 310 311 311 312 313 313 314 315 316 316 316 316 316 316 316 316 316 316 317 317 318 319 321 322 324 326 327 328 328 328 328 327 326 325 323 321 319 315 313 314 316 316 315 313 311 309 308 308 307 306 306 307 307 308 309 308 308 307 307 307 306 306 305 303 302 302 302 302 301 301 302 301 301 300 300 300
310 310 311 311 311 310 310 309 309 309 309 310 311 312 313 314 315 316 317 317 317 317 316 316 316 316 316 317 318 319 320 321 322 324 326 328 330 330 330 330 329 328 327 325 324 323 322 321 319 316 312 310 310 308 306 305 304 304 305 305 305 305 306 307 308 308 308 308 308 308 307 307 306 305 304 303 302 302 301 301 301 301 301 301 301 300 300 300
310 310 310 309 309 309 309 308 308 309 311 312 314 315 316 317 317 318 318 317 317 317 317 317 317 317 318 319 320 321 323 325 328 329 330 330 330 329 328 328 327 326 325 324 325 324 325 325 325 323 320 318 318 316 313 311 309 309 311 311 309 309 309 309 309 309 308 308 308 307 306 306 305 305 304 303 302 301 300 300 300 300 300 300 300 300 300 300
308 308 308 308 308 308 309 309 310 312 314 316 317 318 319 318 318 317 317 317 317 317 317 317 318 319 320 322 324 325 328 330 330 329 327 327 326 326 327 327 327 327 327 328 329 329 330 330 331 331 329 327 328 328 326 324 321 319 319 317 315 313 313 312 312 311 309 308 308 308 306 306 305 305 304 303 302 302 301 302 302 301 301 300 300 300 301 301
306 307 308 308 309 310 311 312 314 316 317 319 319 319 318 317 317 317 317 317 317 317 318 319 321 322 324 326 328 330 330 329 327 326 325 325 326 327 328 329 331 332 333 333 334 334 334 334 335 336 333 330 331 332 330 328 327 325 324 321 319 317 316 315 314 313 311 310 309 308 307 306 306 306 305 305 304 304 305 305 305 304 303 302 302 302 301 301
306 308 309 310 311 312 313 315 317 319 320 320 319 318 317 316 316 316 316 317 318 319 320 322 323 325 327 329 330 329 328 327 326 326 326 327 329 331 333 334 335 337 337 337 337 338 338 338 338 339 337 334 334 335 333 331 330 329 327 324 321 319 317 316 315 314 312 311 310 310 308 308 307 307 307 307 307 307 307 307 307 305 304 303 303 303 304 304
310 311 312 313 314 315 316 318 319 320 320 319 317 316 316 316 316 317 317 318 320 320 322 324 326 327 329 329 328 326 324 324 325 326 327 329 331 334 336 338 339 340 340 340 340 342 342 341 341 342 342 338 337 337 335 332 331 330 328 325 323 321 320 318 317 316 314 312 311 310 309 308 308 308 308 308 307 307 307 308 307 306 305 306 307 309 310 309
312 313 314 315 316 317 318 319 319 319 318 317 316 316 316 317 317 318 319 320 321 322 324 326 327 328 328 327 326 324 323 323 324 326 329 332 334 336 338 339 341 342 343 344 345 345 346 345 344 345 345 341 339 339 337 334 332 330 328 326 324 322 320 318 315 313 311 309 309 309 309 309 308 307 306 306 307 308 310 311 311 309 309 310 312 312 311 310
314 314 315 316 317 318 318 318 318 318 317 317 317 317 317 318 319 319 320 320 322 324 326 328 328 328 327 326 326 326 326 328 329 331 334 336 338 339 341 341 343 345 346 347 347 348 348 348 347 346 346 343 340 339 337 334 333 331 328 325 322 320 318 316 314 312 311 310 310 311 310 309 309 308 309 311 312 313 314 313 311 310 310 312 313 312 310 309
315 315 316 316 317 318 318 318 317 317 317 317 318 318 319 319 320 320 321 323 324 326 327 328 328 328 328 328 329 331 332 334 336 338 340 342 342 344 345 345 346 347 348 348 348 348 349 349 348 347 346 344 341 339 338 335 332 329 326 323 321 319 317 316 315 315 315 314 313 313 313 313 314 315 316 317 317 316 316 315 313 312 314 315 314 313 312 311